User: anonymous   Login
Location: Sungai Laei
(2.6000°N, 113.7167°E)
Time: 01:42:26
(UTC+00:00)
Language:

Cosmos 2341 Rocket - Orbit

View from above orbital plane
View from above orbital plane
View from above satellite
View from above satellite

Ground track
Ground track

The orbit data is extracted from the following two-line orbital elements,

1 24773U 97017B   22225.56570736  .00000122  00000-0  11386-3 0  9996
2 24773  82.9189  57.5118 0025772 103.1113 311.1339 13.73693694269180
Epoch (UTC): 13 August 2022 13:34:37
Eccentricity: 0.0025772
inclination: 82.9189°
perigee height: 967 km
apogee height: 1005 km
right ascension of ascending node: 57.5118°
argument of perigee: 103.1113°
revolutions per day: 13.73693694
mean anomaly at epoch: 311.1339°
orbit number at epoch: 26918

The dashed part of the orbit path shows where the satellite is in the earth's shadow,  

DLR